| time (UTC) | temp F | wind direction | speed knots | gust knots | rain 1hr in | rain 24hr in | rain mn in | humidity % | barometer mb |
| 20260507074503 | 70 | 172 | 3.5 | 7.8 | 0.00 | 0.00 | 0.00 | 100 | 1010.4 |
| 20260507073109 | 69 | 125 | 5.2 | 11.3 | 0.00 | 0.00 | 0.00 | 100 | 1010.3 |
| 20260507071554 | 68 | 112 | 5.2 | 9.6 | 0.00 | 0.00 | 0.00 | 100 | 1010.3 |
| 20260507070104 | 67 | 140 | 4.3 | 10.4 | 0.00 | 0.00 | 0.00 | 100 | 1010.4 |
| 20260507064550 | 66 | 132 | 4.3 | 7.8 | 0.00 | 0.00 | 0.00 | 100 | 1010.3 |
| 20260507063052 | 64 | 115 | 4.3 | 9.6 | 0.00 | 0.00 | 0.00 | 100 | 1010.4 |
| 20260507061541 | 63 | 144 | 2.6 | 8.7 | 0.00 | 0.00 | 0.00 | 100 | 1010.4 |
| 20260507060044 | 62 | 171 | 2.6 | 7.8 | 0.00 | 0.00 | 0.00 | 100 | 1010.4 |
| 20260507054539 | 61 | 140 | 5.2 | 8.7 | 0.00 | 0.00 | 0.00 | 100 | 1010.5 |
| 20260507053030 | 60 | 150 | 2.6 | 7.0 | 0.00 | 0.00 | 0.00 | 100 | 1010.4 |
| 20260507051528 | 59 | 122 | 4.3 | 7.8 | 0.00 | 0.00 | 0.00 | 100 | 1010.5 |
| 20260507050046 | 58 | 119 | 3.5 | 7.8 | 0.00 | 0.00 | 0.00 | 100 | 1010.4 |
| 20260507044522 | 57 | 360 | 3.5 | 7.0 | 0.00 | 0.00 | 0.00 | 100 | 1010.4 |
| 20260507043013 | 56 | 360 | 3.5 | 7.8 | 0.00 | 0.00 | 0.00 | 100 | 1010.3 |
| 20260507041511 | 55 | 360 | 3.5 | 7.0 | 0.00 | 0.00 | 0.00 | 100 | 1010.3 |
| 20260507040004 | 54 | 360 | 3.5 | 5.2 | 0.00 | 0.00 | 0.00 | 100 | 1010.3 |
| 20260507034607 | 53 | 360 | 1.7 | 4.3 | 0.00 | 0.00 | 0.00 | 100 | 1010.1 |
| 20260507033058 | 52 | 360 | 1.7 | 3.5 | 0.00 | 0.00 | 0.00 | 100 | 1010.1 |
| 20260507031555 | 52 | 360 | 1.7 | 3.5 | 0.00 | 0.00 | 0.00 | 100 | 1010.1 |
| 20260507030051 | 52 | 360 | 1.7 | 3.5 | 0.00 | 0.00 | 0.00 | 100 | 1010.0 |
| 20260507024549 | 52 | 360 | 1.7 | 3.5 | 0.00 | 0.00 | 0.00 | 100 | 1009.9 |
| 20260507023045 | 52 | 360 | 2.6 | 5.2 | 0.00 | 0.00 | 0.00 | 100 | 1009.8 |
| 20260507021555 | 53 | 360 | 1.7 | 4.3 | 0.00 | 0.00 | 0.00 | 100 | 1009.8 |
| 20260507020043 | 53 | 360 | 1.7 | 4.3 | 0.00 | 0.00 | 0.00 | 100 | 1009.7 |
| 20260507014540 | 53 | 360 | 1.7 | 3.5 | 0.00 | 0.00 | 0.00 | 100 | 1009.7 |
| 20260507013038 | 54 | 360 | 1.7 | 3.5 | 0.00 | 0.00 | 0.00 | 100 | 1009.6 |
| 20260507011539 | 54 | 360 | 1.7 | 3.5 | 0.00 | 0.00 | 0.00 | 100 | 1009.5 |
| 20260507010042 | 54 | 360 | 1.7 | 4.3 | 0.00 | 0.00 | 0.00 | 100 | 1009.4 |
| 20260507004534 | 55 | 360 | 1.7 | 4.3 | 0.00 | 0.00 | 0.00 | 100 | 1009.5 |
| 20260507003032 | 54 | 360 | 1.7 | 3.5 | 0.00 | 0.00 | 0.00 | 100 | 1009.4 |
| 20260507001534 | 55 | 360 | 0.9 | 2.6 | 0.00 | 0.00 | 0.00 | 100 | 1009.3 |
| 20260507000034 | 55 | 360 | 0.9 | 2.6 | 0.00 | 0.00 | 0.00 | 100 | 1009.2 |
| 20260506234529 | 55 | 360 | 0.0 | 1.7 | 0.00 | 0.00 | 0.00 | 100 | 1009.2 |
| 20260506233027 | 55 | 360 | 0.9 | 2.6 | 0.00 | 0.00 | 0.00 | 100 | 1009.2 |
| 20260506231528 | 55 | 360 | 0.0 | 0.9 | 0.00 | 0.00 | 0.00 | 100 | 1009.2 |
| 20260506230024 | 55 | 360 | 0.9 | 1.7 | 0.00 | 0.00 | 0.00 | 100 | 1008.9 |
| 20260506224521 | 56 | 360 | 0.0 | 0.9 | 0.00 | 0.00 | 0.00 | 100 | 1008.9 |
| 20260506223018 | 57 | 360 | 0.0 | 1.7 | 0.00 | 0.00 | 0.00 | 100 | 1008.8 |
| 20260506221516 | 57 | 360 | 1.7 | 3.5 | 0.00 | 0.00 | 0.00 | 100 | 1008.7 |
| 20260506220023 | 57 | 360 | 0.0 | 1.7 | 0.00 | 0.00 | 0.00 | 100 | 1008.6 |
| 20260506214511 | 58 | 360 | 0.0 | 0.9 | 0.00 | 0.00 | 0.00 | 100 | 1008.6 |
| 20260506213006 | 60 | 360 | 0.0 | 1.7 | 0.00 | 0.00 | 0.00 | 100 | 1008.5 |
| 20260506211502 | 61 | 360 | 1.7 | 4.3 | 0.00 | 0.00 | 0.00 | 100 | 1008.3 |
| 20260506204602 | 63 | 360 | 1.7 | 4.3 | 0.00 | 0.00 | 0.00 | 100 | 1008.2 |
| 20260506203058 | 63 | 360 | 2.6 | 5.2 | 0.00 | 0.00 | 0.00 | 100 | 1008.0 |
| 20260506201558 | 64 | 360 | 2.6 | 5.2 | 0.00 | 0.00 | 0.00 | 100 | 1007.9 |
| 20260506200112 | 65 | 360 | 2.6 | 4.3 | 0.00 | 0.00 | 0.00 | 100 | 1007.9 |
| 20260506194614 | 67 | 360 | 2.6 | 7.8 | 0.00 | 0.00 | 0.00 | 100 | 1007.9 |
| 20260506193055 | 68 | 360 | 3.5 | 7.8 | 0.00 | 0.00 | 0.00 | 100 | 1007.9 |
| 20260506191554 | 68 | 360 | 3.5 | 7.8 | 0.00 | 0.00 | 0.00 | 100 | 1007.8 |
| 20260506190054 | 69 | 360 | 4.3 | 9.6 | 0.00 | 0.00 | 0.00 | 100 | 1007.7 |
| 20260506184559 | 69 | 360 | 2.6 | 7.8 | 0.00 | 0.00 | 0.00 | 100 | 1007.5 |
| 20260506183102 | 70 | 360 | 3.5 | 7.0 | 0.00 | 0.00 | 0.00 | 100 | 1007.4 |
| 20260506181559 | 70 | 360 | 4.3 | 8.7 | 0.00 | 0.00 | 0.00 | 100 | 1007.3 |
| 20260506180052 | 71 | 360 | 2.6 | 7.0 | 0.00 | 0.00 | 0.00 | 99 | 1007.2 |
| 20260506174551 | 72 | 360 | 2.6 | 5.2 | 0.00 | 0.00 | 0.00 | 96 | 1006.9 |
| 20260506173055 | 73 | 360 | 1.7 | 6.1 | 0.00 | 0.00 | 0.00 | 94 | 1006.7 |
| 20260506171550 | 75 | 133 | 2.6 | 7.8 | 0.00 | 0.00 | 0.00 | 93 | 1006.5 |
| 20260506170050 | 76 | 144 | 3.5 | 8.7 | 0.00 | 0.00 | 0.00 | 92 | 1006.5 |
| 20260506164552 | 77 | 161 | 3.5 | 10.4 | 0.00 | 0.00 | 0.00 | 92 | 1006.5 |
| 20260506163051 | 78 | 185 | 3.5 | 10.4 | 0.00 | 0.00 | 0.00 | 91 | 1006.5 |
| 20260506161556 | 78 | 178 | 6.1 | 10.4 | 0.00 | 0.00 | 0.00 | 90 | 1006.4 |
| 20260506160047 | 79 | 194 | 4.3 | 11.3 | 0.00 | 0.00 | 0.00 | 89 | 1006.4 |
| 20260506154546 | 80 | 161 | 3.5 | 13.0 | 0.00 | 0.00 | 0.00 | 89 | 1006.5 |
| 20260506153044 | 80 | 167 | 3.5 | 13.9 | 0.00 | 0.00 | 0.00 | 90 | 1006.4 |
| 20260506151600 | 81 | 125 | 6.1 | 10.4 | 0.00 | 0.00 | 0.00 | 89 | 1006.5 |
| 20260506150043 | 81 | 180 | 5.2 | 14.8 | 0.00 | 0.00 | 0.00 | 88 | 1006.5 |
| 20260506144542 | 82 | 121 | 3.5 | 11.3 | 0.00 | 0.00 | 0.00 | 89 | 1006.7 |
| 20260506143144 | 82 | 174 | 3.5 | 12.2 | 0.00 | 0.00 | 0.00 | 89 | 1006.7 |
| 20260506141540 | 82 | 175 | 5.2 | 10.4 | 0.00 | 0.00 | 0.00 | 87 | 1006.6 |
| 20260506140040 | 82 | 163 | 4.3 | 10.4 | 0.00 | 0.00 | 0.00 | 87 | 1006.5 |
| 20260506134538 | 83 | 213 | 5.2 | 8.7 | 0.00 | 0.00 | 0.00 | 87 | 1007.1 |
| 20260506133040 | 83 | 211 | 3.5 | 9.6 | 0.00 | 0.00 | 0.00 | 88 | 1006.9 |
| 20260506131536 | 82 | 189 | 2.6 | 13.9 | 0.00 | 0.00 | 0.00 | 87 | 1007.0 |
| 20260506130033 | 82 | 161 | 6.1 | 10.4 | 0.00 | 0.00 | 0.00 | 87 | 1007.2 |
| 20260506124531 | 82 | 203 | 2.6 | 9.6 | 0.00 | 0.00 | 0.00 | 86 | 1007.2 |
| 20260506123028 | 82 | 185 | 5.2 | 14.8 | 0.00 | 0.00 | 0.00 | 87 | 1007.3 |
| 20260506121527 | 82 | 132 | 4.3 | 13.9 | 0.00 | 0.00 | 0.00 | 88 | 1007.3 |
| 20260506120025 | 82 | 124 | 5.2 | 11.3 | 0.00 | 0.00 | 0.00 | 88 | 1007.6 |
| 20260506114532 | 82 | 173 | 5.2 | 12.2 | 0.00 | 0.00 | 0.00 | 90 | 1007.7 |
| 20260506113020 | 82 | 205 | 5.2 | 9.6 | 0.00 | 0.00 | 0.00 | 88 | 1007.8 |
| 20260506111515 | 82 | 207 | 4.3 | 9.6 | 0.00 | 0.00 | 0.00 | 91 | 1008.0 |
| 20260506110012 | 81 | 217 | 5.2 | 10.4 | 0.00 | 0.00 | 0.00 | 89 | 1008.1 |
| 20260506104509 | 81 | 225 | 4.3 | 10.4 | 0.00 | 0.00 | 0.00 | 92 | 1008.3 |
| 20260506103013 | 80 | 206 | 3.5 | 7.8 | 0.00 | 0.00 | 0.00 | 93 | 1008.5 |
| 20260506101503 | 80 | 228 | 4.3 | 8.7 | 0.00 | 0.00 | 0.00 | 94 | 1008.5 |
| 20260506100101 | 80 | 203 | 3.5 | 8.7 | 0.00 | 0.00 | 0.00 | 92 | 1008.5 |
| 20260506094600 | 79 | 225 | 3.5 | 7.0 | 0.00 | 0.00 | 0.00 | 93 | 1008.6 |
| 20260506093102 | 78 | 94 | 4.3 | 9.6 | 0.00 | 0.00 | 0.00 | 94 | 1008.7 |
| 20260506091553 | 78 | 188 | 2.6 | 7.8 | 0.00 | 0.00 | 0.00 | 96 | 1008.9 |
| 20260506090049 | 77 | 134 | 2.6 | 7.8 | 0.00 | 0.00 | 0.00 | 98 | 1008.9 |
| 20260506084549 | 76 | 203 | 0.9 | 7.0 | 0.00 | 0.00 | 0.00 | 100 | 1008.9 |
| 20260506083042 | 75 | 216 | 1.7 | 7.0 | 0.00 | 0.00 | 0.00 | 100 | 1009.0 |
| 20260506081537 | 74 | 196 | 1.7 | 5.2 | 0.00 | 0.00 | 0.00 | 100 | 1009.1 |